星链-6127 (STARLINK-6127 )

导读

STARLINK-6127是美国SpaceX公司星链星座中的一颗低轨通信卫星,于2023年6月23日发射入轨。星链项目旨在通过大规模低轨卫星星座,为全球提供高速低延迟互联网服务,尤其覆盖地面网络难以触达的偏远地区。 该卫星运行在近地轨道,属于星链持续扩容计划的一部分,助力项目扩展全球服务覆盖范围,目前星链已服务超百个国家,服务场景从家用宽带拓展至航空、航海等领域。

基本信息
目录编号:
57135
目录名称:
STARLINK-6127
国际标识:
2023-090AL
轨道中心:
EARTH
卫星名称:
星链-6127
卫星全名:
星链-6127 (STARLINK-6127 )
卫星状态:
在轨 (已飞行1177 天)
发射日期:
2023-06-23 UTC
国别 :
美国 (US)
星等 :
--
该卫星已列入 空间交会检测服务 Space Conjunction Data Service (SCDS) ,当前飞行风险评估等级: 无高风险
轨道信息
数据来源 国际轨道数据 AOE轨道数据
星历时间 2026-09-12T03:56:06+0800
20小时前
查看轨道信息
2026-09-06T07:00:00+0800
6天前
查看轨道信息
半长轴 6861.198km 6861.163km
偏心率 0.0001628 0.0001689
轨道倾角 43.005° 43.003°
近地点辐角 284.948° 280.269°
升交点赤经 291.913° 325.079°
平近点角 75.119° 148.575°
近地点 481.943km 481.867km
远地点 484.179km 484.185km
周期 94.267分钟 94.266分钟
每日圈数 15.275761 15.275879
详细信息
固有亮度:
5
最大亮度:
2.4
卫星平台:
Starlink v1.5
覆盖范围:
全球
运营商:
太空探索技术公司
运营商所在国:
美国
制造商(研发单位):
太空探索技术公司
制造商所在国:
美国
使用方式:
暂无
卫星简介
星链(Starlink)计划是由太空探索技术公司(SpaceX)提出的一个巨型低轨卫星互联网星座项目,计划在2019年至2024年间在太空搭建由约1.2万颗卫星组成的“星链”网络,其中1584颗将部署在地球上空550千米处的近地轨道,并从2020年开始工作。该卫星仍在工作。
2D轨道图
3D轨道图
轨道高度分析图
轨道倾角分析图
轨道综合分析图
查看轨道综合分析图
与全量物体交会距离演化趋势
与全量物体交会风险概率演化趋势